星链-36721(STARLINK-36721)

导读

STARLINK-36721是美国(US)于2026年2月20日发射的星链卫星,隶属于SpaceX公司的星链星座项目。星链项目旨在构建全球卫星互联网,为全球各个地区尤其是偏远区域提供高速宽带接入服务,这颗卫星加入后将进一步扩充星链星座的在轨规模,提升全球网络覆盖能力与服务稳定性。

Basic Information
目录编号:
67859
目录名称:
STARLINK-36393
国际标识:
2026-034K
轨道中心:
EARTH
卫星名称:
星链-36721
卫星全名:
星链-36721(STARLINK-36721)
卫星状态:
在轨 (已飞行196 天)
发射日期:
2026-02-20 UTC
国别 :
美国 (US)
星等 :
--
Orbit Information
数据来源 国际轨道数据
星历时间: 2026-09-03T21:33:25+0800
13小时前
查看轨道信息
半长轴: 6848.777km
偏心率: 0.0001656
轨道倾角: 53.158°
近地点辐角 86.557°
升交点赤经 96.291°
平近点角 273.562°
近地点: 469.505km
远地点: 471.775km
周期: 94.011分钟
每日圈数: 15.317337
Detailed Information
固有亮度:
5
最大亮度:
2.5
卫星平台:
Starlink V1.0
覆盖范围:
全球
运营商:
太空探索技术公司
运营商所在国:
美国
制造商(研发单位):
太空探索技术公司
制造商所在国:
美国
使用方式:
暂无
Satellite Introduction
Starlink 计划是 SpaceX 推出的全球卫星互联网项目,通过发射低轨道卫星,为全球尤其是偏远地区提供高速、低延迟的互联网服务。自 2019 年起,Starlink 已部署数千颗卫星,旨在缩小全球数字鸿沟,推动互联网普及。该项目还为军事、航空等行业提供通信支持,带来广泛经济效益。
2D Orbit Map
3D Orbit Map
Orbit Altitude Analysis Chart
Orbit Inclination Analysis Chart
Orbit Comprehensive Analysis Chart
View Comprehensive Chart
Conjunction Data List
Event ID Objects TCA Miss Dist (km) Collision Risk Probability Collision Risk Index (CRI) Action
CDM_260905-080206-416306-785921
2026-09-05T
08:02:27+0000
2.014 km
极远距离
2.763492E-6 低风险 0.44
CDM_260905-140006-785906-797621
2026-09-05T
14:00:58+0000
2.404 km
极远距离
1.882406E-6 低风险 0.4
CDM_260827-212906-785906-798121
2026-08-27T
21:29:21+0000
2.507 km
极远距离
1.628628E-6 低风险 0.39
CDM_260904-051206-785906-930821
2026-09-04T
05:12:22+0000
2.713 km
极远距离
1.531582E-6 低风险 0.39
CDM_260905-141706-785906-965021
2026-09-05T
14:17:25+0000
2.999 km
极远距离
1.3225E-6 低风险 0.37